QPF
0.01 0.01 0.01 0.01 0.01 0.02 0.01 0.01 0.01 0.01 0.01 0.01 0.01 0.00 0.00 0.00 0.01 0.01 0.02 0.01 0.00 0.00 0.00 0.00 0.01 0.01 0.02 0.03 0.04 0.06 0.06 0.04 0.03 0.02 0.02 0.01 0.00 0.00 0.00 0.00 0.00 0.00 0.01
0.01 0.01 0.02 0.01 0.01 0.01 0.01 0.01 0.01 0.01 0.01 0.01 0.01 0.00 0.00 0.00 0.00 0.01 0.02 0.02 0.01 0.01 0.00 0.00 0.00 0.01 0.01 0.02 0.03 0.04 0.06 0.05 0.03 0.03 0.02 0.02 0.01 0.00 0.00 0.00 0.00 0.00 0.00
0.01 0.01 0.01 0.02 0.02 0.02 0.02 0.02 0.03 0.02 0.01 0.01 0.01 0.01 0.01 0.01 0.00 0.00 0.02 0.03 0.03 0.02 0.01 0.01 0.01 0.01 0.01 0.01 0.02 0.03 0.04 0.06 0.05 0.04 0.03 0.02 0.01 0.01 0.01 0.01 0.00 0.01 0.01
0.01 0.01 0.01 0.02 0.03 0.04 0.05 0.05 0.04 0.02 0.01 0.01 0.01 0.01 0.01 0.01 0.00 0.00 0.01 0.02 0.03 0.03 0.02 0.02 0.01 0.01 0.01 0.01 0.02 0.02 0.03 0.04 0.05 0.04 0.03 0.02 0.01 0.01 0.01 0.01 0.01 0.01 0.01
0.00 0.01 0.01 0.01 0.02 0.05 0.06 0.05 0.03 0.02 0.01 0.01 0.01 0.01 0.01 0.01 0.00 0.00 0.00 0.01 0.02 0.02 0.02 0.02 0.03 0.02 0.02 0.02 0.02 0.02 0.02 0.03 0.04 0.04 0.03 0.02 0.02 0.01 0.01 0.01 0.01 0.01 0.02
0.01 0.01 0.02 0.02 0.03 0.04 0.05 0.05 0.03 0.02 0.01 0.01 0.00 0.00 0.01 0.00 0.00 0.00 0.00 0.01 0.01 0.01 0.01 0.01 0.02 0.03 0.03 0.02 0.01 0.01 0.02 0.02 0.03 0.04 0.04 0.03 0.02 0.01 0.01 0.01 0.01 0.01 0.01
0.01 0.02 0.02 0.03 0.05 0.05 0.05 0.04 0.02 0.02 0.01 0.01 0.00 0.00 0.00 0.00 0.00 0.00 0.00 0.01 0.01 0.01 0.01 0.01 0.01 0.01 0.03 0.03 0.02 0.01 0.01 0.02 0.02 0.03 0.04 0.03 0.01 0.01 0.02 0.02 0.01 0.01 0.01
0.02 0.02 0.02 0.03 0.05 0.06 0.05 0.04 0.03 0.02 0.02 0.02 0.02 0.01 0.01 0.01 0.00 0.00 0.01 0.01 0.01 0.01 0.01 0.01 0.01 0.02 0.02 0.03 0.03 0.02 0.01 0.01 0.02 0.02 0.02 0.02 0.01 0.01 0.02 0.02 0.02 0.02 0.02
0.02 0.03 0.03 0.03 0.04 0.05 0.04 0.04 0.04 0.04 0.03 0.03 0.03 0.01 0.01 0.01 0.01 0.00 0.01 0.01 0.01 0.01 0.01 0.01 0.01 0.02 0.04 0.04 0.04 0.03 0.02 0.01 0.01 0.01 0.01 0.01 0.01 0.02 0.02 0.02 0.03 0.03 0.03
0.04 0.05 0.05 0.04 0.06 0.07 0.06 0.05 0.05 0.04 0.04 0.03 0.03 0.01 0.01 0.01 0.00 0.00 0.00 0.01 0.01 0.01 0.01 0.01 0.01 0.02 0.02 0.04 0.05 0.05 0.04 0.02 0.02 0.01 0.01 0.01 0.01 0.01 0.02 0.01 0.02 0.03 0.03
0.03 0.04 0.04 0.04 0.05 0.06 0.05 0.04 0.03 0.02 0.02 0.02 0.02 0.01 0.01 0.00 0.00 0.00 0.00 0.01 0.02 0.02 0.02 0.01 0.01 0.02 0.02 0.03 0.04 0.05 0.05 0.05 0.04 0.03 0.02 0.02 0.02 0.02 0.02 0.02 0.02 0.02 0.02
0.02 0.02 0.03 0.03 0.03 0.03 0.02 0.02 0.02 0.02 0.01 0.01 0.01 0.01 0.01 0.00 0.00 0.00 0.00 0.01 0.02 0.02 0.02 0.02 0.02 0.02 0.03 0.03 0.04 0.04 0.04 0.05 0.05 0.05 0.03 0.02 0.02 0.03 0.03 0.03 0.03 0.03 0.03
0.01 0.02 0.02 0.03 0.02 0.02 0.02 0.02 0.01 0.01 0.01 0.01 0.00 0.00 0.00 0.00 0.00 0.00 0.01 0.01 0.02 0.02 0.02 0.04 0.03 0.03 0.03 0.03 0.04 0.04 0.04 0.05 0.04 0.05 0.04 0.03 0.02 0.02 0.02 0.03 0.03 0.03 0.03
0.01 0.01 0.02 0.02 0.02 0.03 0.03 0.02 0.01 0.01 0.01 0.01 0.01 0.01 0.00 0.00 0.01 0.01 0.01 0.01 0.01 0.02 0.03 0.04 0.04 0.03 0.03 0.04 0.04 0.04 0.05 0.06 0.05 0.05 0.04 0.04 0.03 0.03 0.03 0.04 0.04 0.04 0.04
0.01 0.01 0.02 0.02 0.03 0.03 0.03 0.02 0.02 0.02 0.01 0.01 0.01 0.01 0.01 0.01 0.01 0.01 0.01 0.01 0.01 0.03 0.03 0.04 0.04 0.04 0.04 0.04 0.04 0.05 0.05 0.05 0.05 0.05 0.04 0.04 0.05 0.04 0.04 0.05 0.05 0.05 0.06
0.01 0.01 0.02 0.02 0.03 0.03 0.03 0.03 0.02 0.02 0.02 0.02 0.01 0.01 0.01 0.01 0.01 0.01 0.01 0.01 0.01 0.03 0.04 0.05 0.07 0.06 0.05 0.05 0.04 0.04 0.04 0.03 0.03 0.04 0.05 0.05 0.05 0.05 0.06 0.06 0.06 0.06 0.07
0.02 0.01 0.02 0.03 0.04 0.03 0.02 0.02 0.02 0.01 0.01 0.01 0.01 0.02 0.02 0.02 0.02 0.02 0.02 0.01 0.02 0.02 0.04 0.05 0.07 0.08 0.07 0.06 0.05 0.04 0.04 0.04 0.03 0.03 0.05 0.05 0.04 0.05 0.06 0.08 0.08 0.08 0.07
0.02 0.02 0.02 0.04 0.06 0.06 0.05 0.03 0.02 0.01 0.01 0.01 0.01 0.01 0.02 0.02 0.02 0.02 0.02 0.02 0.02 0.02 0.04 0.05 0.06 0.07 0.07 0.06 0.05 0.04 0.04 0.04 0.04 0.04 0.04 0.04 0.04 0.05 0.06 0.07 0.07 0.08 0.09
0.02 0.02 0.03 0.05 0.07 0.07 0.06 0.04 0.03 0.02 0.02 0.03 0.02 0.02 0.03 0.02 0.01 0.01 0.02 0.02 0.02 0.03 0.04 0.05 0.05 0.06 0.06 0.06 0.06 0.04 0.03 0.03 0.03 0.04 0.04 0.05 0.06 0.05 0.06 0.07 0.07 0.07 0.07
0.02 0.03 0.03 0.04 0.05 0.06 0.05 0.04 0.04 0.03 0.03 0.04 0.04 0.04 0.03 0.02 0.02 0.02 0.02 0.02 0.02 0.02 0.03 0.04 0.05 0.05 0.05 0.06 0.05 0.04 0.03 0.03 0.03 0.04 0.05 0.05 0.04 0.04 0.04 0.04 0.05 0.07 0.08
0.01 0.02 0.02 0.03 0.03 0.04 0.04 0.04 0.04 0.04 0.04 0.03 0.03 0.03 0.02 0.02 0.03 0.03 0.03 0.03 0.03 0.03 0.03 0.03 0.03 0.05 0.05 0.05 0.05 0.05 0.04 0.03 0.02 0.03 0.03 0.03 0.03 0.03 0.03 0.03 0.03 0.05 0.06
0.00 0.00 0.01 0.01 0.01 0.01 0.01 0.02 0.03 0.03 0.03 0.02 0.02 0.01 0.01 0.01 0.01 0.02 0.02 0.02 0.02 0.03 0.03 0.03 0.03 0.03 0.04 0.04 0.03 0.05 0.05 0.03 0.02 0.02 0.02 0.02 0.03 0.03 0.03 0.03 0.03 0.03 0.03
0.00 0.00 0.00 0.00 0.00 0.00 0.00 0.00 0.01 0.01 0.01 0.01 0.01 0.00 0.01 0.01 0.01 0.01 0.01 0.02 0.01 0.01 0.02 0.03 0.02 0.02 0.02 0.02 0.03 0.05 0.05 0.04 0.02 0.02 0.02 0.02 0.02 0.02 0.02 0.02 0.02 0.02 0.02
0.00 0.00 0.00 0.00 0.00 0.00 0.00 0.00 0.00 0.00 0.00 0.00 0.00 0.00 0.00 0.01 0.01 0.01 0.01 0.01 0.02 0.02 0.01 0.01 0.01 0.02 0.02 0.03 0.02 0.03 0.03 0.02 0.02 0.02 0.02 0.02 0.02 0.02 0.02 0.02 0.02 0.01 0.02
0.00 0.00 0.00 0.00 0.00 0.01 0.01 0.00 0.00 0.00 0.00 0.00 0.00 0.00 0.01 0.01 0.01 0.01 0.01 0.01 0.01 0.01 0.01 0.01 0.01 0.01 0.02 0.02 0.02 0.01 0.01 0.01 0.01 0.01 0.01 0.01 0.02 0.02 0.02 0.02 0.02 0.02 0.02
0.00 0.00 0.00 0.00 0.00 0.01 0.01 0.01 0.01 0.01 0.01 0.00 0.01 0.01 0.01 0.01 0.01 0.01 0.01 0.01 0.01 0.01 0.01 0.01 0.01 0.01 0.01 0.01 0.01 0.01 0.01 0.01 0.01 0.01 0.01 0.01 0.01 0.01 0.02 0.02 0.02 0.02 0.02
MSLP
1010.57 1011.47 1012.33 1013.09 1013.73 1014.25 1014.69 1015.06 1015.44 1015.84 1016.29 1016.81 1017.37 1017.94 1018.49 1018.99 1019.42 1019.78 1020.07 1020.32 1020.55 1020.78 1021.04 1021.32 1021.61 1021.89 1022.14 1022.34 1022.47 1022.53 1022.54 1022.51 1022.46 1022.41 1022.38 1022.38 1022.39 1022.41 1022.42 1022.41 1022.36 1022.27 1022.15
1010.29 1011.19 1012.04 1012.81 1013.46 1014.02 1014.48 1014.90 1015.30 1015.73 1016.20 1016.71 1017.27 1017.84 1018.40 1018.90 1019.35 1019.73 1020.04 1020.31 1020.56 1020.81 1021.07 1021.34 1021.62 1021.89 1022.13 1022.32 1022.45 1022.53 1022.55 1022.54 1022.52 1022.50 1022.50 1022.52 1022.55 1022.57 1022.57 1022.54 1022.47 1022.36 1022.21
1009.99 1010.88 1011.73 1012.50 1013.18 1013.77 1014.28 1014.74 1015.18 1015.64 1016.13 1016.66 1017.22 1017.79 1018.34 1018.84 1019.29 1019.67 1019.99 1020.27 1020.52 1020.78 1021.03 1021.30 1021.57 1021.84 1022.07 1022.26 1022.41 1022.51 1022.56 1022.60 1022.62 1022.64 1022.67 1022.71 1022.75 1022.77 1022.76 1022.71 1022.61 1022.46 1022.28
1009.63 1010.52 1011.37 1012.15 1012.86 1013.48 1014.04 1014.55 1015.05 1015.55 1016.07 1016.62 1017.19 1017.75 1018.29 1018.78 1019.21 1019.58 1019.90 1020.17 1020.42 1020.67 1020.92 1021.18 1021.45 1021.71 1021.95 1022.16 1022.33 1022.46 1022.57 1022.64 1022.71 1022.78 1022.85 1022.91 1022.95 1022.97 1022.94 1022.86 1022.73 1022.55 1022.34
1009.22 1010.10 1010.95 1011.75 1012.48 1013.14 1013.75 1014.32 1014.88 1015.43 1015.99 1016.56 1017.14 1017.69 1018.22 1018.69 1019.10 1019.45 1019.75 1020.01 1020.26 1020.50 1020.74 1021.00 1021.27 1021.54 1021.80 1022.03 1022.23 1022.40 1022.54 1022.67 1022.78 1022.89 1022.98 1023.06 1023.10 1023.11 1023.06 1022.95 1022.79 1022.59 1022.38
1008.77 1009.65 1010.50 1011.30 1012.06 1012.76 1013.42 1014.04 1014.65 1015.25 1015.85 1016.45 1017.03 1017.58 1018.10 1018.55 1018.94 1019.28 1019.56 1019.81 1020.04 1020.28 1020.52 1020.79 1021.06 1021.34 1021.62 1021.88 1022.11 1022.32 1022.50 1022.66 1022.80 1022.93 1023.04 1023.12 1023.16 1023.16 1023.10 1022.97 1022.80 1022.59 1022.38
1008.31 1009.18 1010.03 1010.84 1011.62 1012.35 1013.05 1013.72 1014.37 1015.01 1015.64 1016.26 1016.85 1017.40 1017.90 1018.35 1018.72 1019.05 1019.32 1019.57 1019.80 1020.04 1020.29 1020.57 1020.86 1021.16 1021.45 1021.73 1021.99 1022.22 1022.42 1022.61 1022.77 1022.90 1023.01 1023.09 1023.12 1023.11 1023.04 1022.91 1022.74 1022.55 1022.36
1007.89 1008.75 1009.59 1010.40 1011.19 1011.94 1012.67 1013.37 1014.05 1014.71 1015.36 1015.99 1016.58 1017.13 1017.63 1018.06 1018.44 1018.76 1019.04 1019.30 1019.54 1019.80 1020.07 1020.37 1020.67 1020.99 1021.30 1021.60 1021.87 1022.11 1022.33 1022.51 1022.67 1022.80 1022.90 1022.96 1022.99 1022.97 1022.90 1022.79 1022.65 1022.50 1022.35
1007.53 1008.37 1009.20 1010.01 1010.80 1011.56 1012.29 1013.00 1013.69 1014.36 1015.01 1015.64 1016.23 1016.77 1017.26 1017.70 1018.09 1018.42 1018.72 1019.00 1019.28 1019.57 1019.87 1020.19 1020.52 1020.85 1021.17 1021.48 1021.75 1021.99 1022.20 1022.37 1022.51 1022.62 1022.71 1022.76 1022.78 1022.77 1022.72 1022.64 1022.54 1022.45 1022.37
1007.22 1008.05 1008.87 1009.68 1010.46 1011.21 1011.93 1012.63 1013.31 1013.96 1014.60 1015.21 1015.79 1016.33 1016.82 1017.27 1017.67 1018.03 1018.37 1018.69 1019.01 1019.34 1019.67 1020.02 1020.37 1020.71 1021.04 1021.34 1021.61 1021.84 1022.03 1022.18 1022.30 1022.39 1022.46 1022.51 1022.53 1022.54 1022.52 1022.49 1022.45 1022.42 1022.41
1006.94 1007.76 1008.58 1009.38 1010.14 1010.88 1011.58 1012.26 1012.90 1013.53 1014.14 1014.72 1015.28 1015.81 1016.31 1016.77 1017.20 1017.60 1017.99 1018.35 1018.72 1019.09 1019.46 1019.83 1020.20 1020.55 1020.88 1021.18 1021.43 1021.64 1021.81 1021.94 1022.04 1022.11 1022.18 1022.22 1022.26 1022.30 1022.33 1022.35 1022.38 1022.42 1022.48
1006.65 1007.48 1008.29 1009.08 1009.84 1010.55 1011.23 1011.87 1012.48 1013.07 1013.64 1014.19 1014.73 1015.26 1015.76 1016.24 1016.70 1017.15 1017.58 1017.99 1018.41 1018.81 1019.21 1019.61 1019.98 1020.34 1020.66 1020.94 1021.17 1021.36 1021.51 1021.63 1021.72 1021.80 1021.86 1021.92 1021.99 1022.06 1022.14 1022.23 1022.33 1022.44 1022.57
1006.31 1007.14 1007.95 1008.74 1009.48 1010.18 1010.83 1011.44 1012.02 1012.58 1013.11 1013.64 1014.16 1014.68 1015.19 1015.70 1016.20 1016.68 1017.15 1017.62 1018.06 1018.50 1018.92 1019.32 1019.70 1020.04 1020.35 1020.61 1020.83 1021.01 1021.15 1021.26 1021.35 1021.43 1021.52 1021.61 1021.71 1021.83 1021.97 1022.12 1022.28 1022.46 1022.65
1005.88 1006.70 1007.52 1008.31 1009.05 1009.74 1010.38 1010.97 1011.52 1012.05 1012.57 1013.08 1013.59 1014.12 1014.64 1015.17 1015.70 1016.22 1016.73 1017.22 1017.69 1018.14 1018.57 1018.97 1019.33 1019.65 1019.94 1020.18 1020.39 1020.56 1020.70 1020.82 1020.93 1021.03 1021.15 1021.28 1021.43 1021.59 1021.79 1022.00 1022.22 1022.46 1022.70
1005.33 1006.15 1006.97 1007.76 1008.50 1009.19 1009.83 1010.41 1010.96 1011.49 1012.00 1012.51 1013.04 1013.57 1014.12 1014.67 1015.23 1015.78 1016.31 1016.82 1017.30 1017.74 1018.16 1018.53 1018.87 1019.17 1019.43 1019.66 1019.86 1020.03 1020.18 1020.32 1020.45 1020.60 1020.75 1020.93 1021.12 1021.35 1021.59 1021.85 1022.13 1022.42 1022.71
1004.69 1005.49 1006.30 1007.09 1007.84 1008.54 1009.18 1009.78 1010.34 1010.88 1011.41 1011.94 1012.48 1013.04 1013.61 1014.19 1014.77 1015.33 1015.88 1016.39 1016.86 1017.29 1017.68 1018.02 1018.33 1018.60 1018.83 1019.05 1019.24 1019.42 1019.59 1019.76 1019.93 1020.12 1020.33 1020.55 1020.80 1021.07 1021.37 1021.68 1022.01 1022.34 1022.67
1003.98 1004.75 1005.54 1006.32 1007.07 1007.78 1008.44 1009.06 1009.65 1010.21 1010.77 1011.34 1011.91 1012.50 1013.10 1013.70 1014.29 1014.87 1015.41 1015.91 1016.36 1016.76 1017.11 1017.42 1017.69 1017.93 1018.15 1018.35 1018.55 1018.74 1018.94 1019.15 1019.37 1019.61 1019.87 1020.15 1020.45 1020.77 1021.11 1021.47 1021.84 1022.22 1022.59
1003.28 1003.99 1004.74 1005.50 1006.24 1006.95 1007.62 1008.27 1008.88 1009.48 1010.08 1010.68 1011.29 1011.91 1012.53 1013.15 1013.75 1014.32 1014.86 1015.34 1015.76 1016.13 1016.45 1016.72 1016.96 1017.18 1017.38 1017.58 1017.79 1018.01 1018.24 1018.50 1018.77 1019.06 1019.38 1019.71 1020.06 1020.44 1020.82 1021.23 1021.64 1022.06 1022.48
1002.63 1003.27 1003.96 1004.67 1005.38 1006.07 1006.75 1007.40 1008.04 1008.67 1009.30 1009.93 1010.57 1011.22 1011.86 1012.49 1013.09 1013.66 1014.17 1014.63 1015.03 1015.37 1015.66 1015.91 1016.13 1016.34 1016.54 1016.75 1016.98 1017.22 1017.50 1017.80 1018.13 1018.48 1018.85 1019.24 1019.65 1020.07 1020.51 1020.95 1021.41 1021.88 1022.34
1002.10 1002.64 1003.24 1003.87 1004.53 1005.19 1005.84 1006.49 1007.14 1007.78 1008.43 1009.08 1009.74 1010.40 1011.05 1011.68 1012.28 1012.83 1013.33 1013.77 1014.15 1014.47 1014.74 1014.98 1015.19 1015.40 1015.62 1015.85 1016.11 1016.40 1016.72 1017.07 1017.46 1017.86 1018.29 1018.74 1019.20 1019.68 1020.16 1020.66 1021.16 1021.67 1022.19
1001.70 1002.13 1002.62 1003.16 1003.73 1004.32 1004.93 1005.55 1006.18 1006.81 1007.46 1008.12 1008.78 1009.44 1010.09 1010.71 1011.30 1011.84 1012.32 1012.75 1013.11 1013.43 1013.70 1013.95 1014.18 1014.40 1014.65 1014.91 1015.21 1015.54 1015.92 1016.32 1016.76 1017.22 1017.71 1018.22 1018.73 1019.26 1019.80 1020.35 1020.90 1021.46 1022.01
1001.45 1001.74 1002.11 1002.53 1003.00 1003.51 1004.05 1004.61 1005.19 1005.80 1006.42 1007.06 1007.71 1008.36 1008.99 1009.60 1010.17 1010.70 1011.17 1011.60 1011.96 1012.29 1012.58 1012.85 1013.11 1013.37 1013.66 1013.97 1014.31 1014.70 1015.12 1015.58 1016.07 1016.58 1017.12 1017.68 1018.25 1018.84 1019.43 1020.03 1020.63 1021.23 1021.82
1001.33 1001.48 1001.71 1002.01 1002.36 1002.76 1003.21 1003.70 1004.22 1004.77 1005.36 1005.96 1006.58 1007.19 1007.80 1008.39 1008.95 1009.47 1009.94 1010.37 1010.75 1011.10 1011.43 1011.74 1012.04 1012.36 1012.69 1013.06 1013.45 1013.89 1014.36 1014.86 1015.40 1015.96 1016.55 1017.15 1017.77 1018.41 1019.05 1019.70 1020.34 1020.98 1021.60
1001.28 1001.30 1001.40 1001.57 1001.80 1002.09 1002.43 1002.84 1003.28 1003.78 1004.30 1004.86 1005.43 1006.02 1006.59 1007.16 1007.70 1008.22 1008.70 1009.14 1009.55 1009.94 1010.31 1010.67 1011.03 1011.41 1011.80 1012.22 1012.67 1013.15 1013.66 1014.21 1014.78 1015.38 1016.00 1016.65 1017.31 1017.98 1018.67 1019.35 1020.04 1020.71 1021.36
1001.25 1001.16 1001.14 1001.18 1001.30 1001.48 1001.73 1002.04 1002.41 1002.83 1003.30 1003.80 1004.33 1004.87 1005.42 1005.96 1006.49 1007.00 1007.49 1007.96 1008.41 1008.84 1009.26 1009.68 1010.11 1010.54 1011.00 1011.47 1011.97 1012.50 1013.05 1013.62 1014.23 1014.85 1015.50 1016.18 1016.86 1017.57 1018.28 1018.99 1019.70 1020.40 1021.07
1001.19 1001.01 1000.89 1000.83 1000.84 1000.93 1001.09 1001.32 1001.61 1001.96 1002.37 1002.81 1003.29 1003.79 1004.30 1004.82 1005.34 1005.85 1006.36 1006.85 1007.34 1007.82 1008.29 1008.78 1009.26 1009.77 1010.28 1010.81 1011.35 1011.92 1012.50 1013.10 1013.73 1014.37 1015.04 1015.72 1016.43 1017.15 1017.88 1018.61 1019.33 1020.04 1020.72
Thickness
5661 5659 5656 5653 5651 5648 5646 5644 5641 5640 5638 5637 5635 5635 5634 5633 5632 5631 5630 5629 5629 5629 5629 5629 5629 5629 5630 5630 5630 5631 5631 5632 5631 5633 5634 5634 5635 5635 5635 5635 5636 5637 5638
5655 5653 5650 5647 5644 5642 5640 5637 5634 5632 5631 5629 5628 5627 5626 5625 5624 5623 5622 5621 5621 5621 5621 5622 5622 5622 5623 5624 5624 5624 5625 5625 5625 5625 5627 5627 5628 5629 5630 5631 5631 5632 5632
5648 5646 5643 5641 5638 5636 5633 5630 5628 5625 5623 5621 5620 5618 5617 5616 5615 5614 5613 5613 5613 5613 5614 5614 5615 5615 5616 5616 5617 5618 5619 5619 5619 5619 5619 5619 5621 5621 5623 5624 5625 5626 5627
5641 5639 5636 5634 5631 5629 5626 5622 5619 5616 5614 5612 5610 5609 5607 5606 5606 5605 5605 5605 5604 5604 5605 5606 5607 5607 5608 5609 5609 5610 5611 5611 5612 5612 5612 5612 5612 5613 5615 5616 5618 5619 5621
5633 5631 5629 5627 5623 5620 5616 5613 5609 5606 5604 5602 5600 5599 5597 5596 5595 5594 5594 5594 5595 5595 5596 5597 5598 5597 5597 5598 5600 5602 5603 5603 5604 5604 5605 5605 5606 5606 5607 5609 5611 5613 5614
5626 5623 5620 5617 5613 5609 5606 5603 5599 5596 5594 5592 5591 5589 5587 5585 5582 5580 5581 5584 5586 5586 5587 5588 5589 5589 5588 5589 5590 5591 5592 5595 5596 5596 5597 5598 5599 5599 5600 5602 5604 5606 5607
5618 5614 5611 5607 5603 5600 5597 5593 5590 5587 5585 5583 5581 5579 5577 5575 5571 5570 5570 5574 5576 5578 5579 5579 5580 5581 5581 5582 5582 5582 5583 5583 5584 5588 5590 5591 5591 5592 5593 5594 5595 5597 5599
5610 5606 5602 5598 5595 5592 5589 5585 5582 5580 5577 5574 5572 5570 5568 5567 5563 5562 5562 5565 5568 5569 5570 5570 5571 5571 5571 5572 5575 5576 5577 5577 5576 5578 5580 5582 5582 5583 5584 5586 5587 5589 5591
5602 5599 5595 5591 5586 5583 5581 5578 5575 5572 5569 5567 5565 5563 5562 5560 5556 5554 5554 5558 5560 5561 5561 5561 5560 5561 5560 5560 5563 5566 5567 5568 5567 5567 5568 5569 5570 5572 5573 5576 5578 5580 5583
5595 5591 5588 5584 5580 5577 5574 5571 5568 5566 5563 5561 5559 5558 5556 5554 5550 5547 5546 5551 5552 5553 5552 5552 5549 5549 5549 5549 5553 5556 5557 5558 5559 5560 5559 5560 5562 5563 5563 5566 5568 5570 5573
5587 5584 5581 5578 5574 5571 5567 5565 5562 5560 5557 5555 5554 5552 5550 5548 5544 5541 5540 5542 5543 5544 5544 5544 5543 5539 5539 5540 5542 5545 5546 5547 5550 5551 5552 5553 5555 5556 5557 5558 5559 5560 5562
5580 5577 5575 5572 5568 5565 5562 5559 5557 5555 5552 5550 5549 5547 5544 5542 5539 5536 5533 5532 5533 5535 5536 5535 5534 5531 5531 5531 5533 5534 5535 5536 5539 5541 5543 5545 5546 5547 5548 5549 5550 5551 5553
5574 5572 5569 5566 5563 5560 5557 5554 5552 5549 5548 5546 5544 5542 5540 5537 5534 5530 5527 5525 5525 5526 5527 5526 5525 5523 5523 5525 5525 5525 5526 5529 5531 5533 5535 5536 5537 5538 5538 5539 5541 5542 5543
5568 5566 5564 5561 5558 5555 5551 5549 5547 5545 5543 5541 5539 5537 5534 5531 5529 5526 5523 5521 5519 5519 5520 5519 5517 5517 5517 5517 5519 5520 5520 5522 5523 5524 5526 5527 5527 5528 5529 5529 5530 5532 5535
5562 5560 5557 5555 5552 5549 5546 5543 5541 5539 5537 5535 5534 5532 5529 5526 5523 5519 5516 5516 5515 5514 5513 5514 5514 5514 5513 5513 5514 5514 5514 5515 5515 5516 5516 5517 5518 5518 5519 5520 5520 5522 5525
5556 5553 5550 5547 5545 5543 5539 5536 5532 5530 5528 5526 5524 5523 5522 5518 5515 5512 5510 5509 5508 5507 5507 5509 5508 5508 5508 5508 5509 5508 5508 5508 5508 5507 5508 5508 5508 5509 5510 5511 5511 5513 5515
5549 5546 5543 5541 5539 5536 5534 5532 5529 5524 5520 5518 5516 5514 5513 5510 5507 5505 5504 5502 5501 5500 5501 5502 5502 5502 5501 5502 5502 5502 5501 5500 5499 5499 5499 5499 5499 5500 5501 5501 5502 5503 5505
5542 5539 5536 5534 5532 5530 5528 5527 5525 5522 5519 5516 5510 5507 5505 5503 5501 5499 5497 5496 5497 5496 5497 5496 5496 5495 5495 5495 5495 5495 5494 5493 5491 5491 5491 5491 5490 5491 5491 5492 5492 5492 5494
5535 5533 5530 5528 5526 5524 5521 5520 5519 5516 5514 5511 5507 5502 5497 5495 5494 5493 5492 5493 5493 5492 5491 5490 5489 5489 5488 5488 5488 5487 5486 5485 5484 5483 5482 5482 5481 5481 5481 5481 5482 5481 5483
5528 5524 5522 5521 5520 5518 5515 5514 5512 5510 5507 5504 5501 5497 5493 5490 5490 5488 5486 5487 5488 5487 5486 5484 5483 5482 5482 5481 5480 5479 5478 5477 5476 5475 5474 5473 5472 5472 5472 5472 5472 5473 5474
5522 5518 5514 5514 5513 5511 5509 5507 5505 5503 5500 5497 5494 5490 5486 5485 5485 5483 5481 5481 5480 5479 5478 5477 5476 5475 5474 5473 5472 5471 5470 5469 5468 5467 5466 5465 5464 5464 5464 5463 5463 5463 5464
5516 5513 5510 5509 5507 5505 5503 5501 5498 5496 5493 5490 5488 5484 5478 5478 5478 5477 5475 5474 5473 5471 5470 5469 5468 5467 5466 5465 5464 5463 5463 5461 5460 5458 5457 5456 5455 5455 5455 5454 5454 5454 5454
5509 5507 5505 5503 5501 5498 5496 5495 5492 5490 5487 5484 5481 5478 5474 5473 5472 5470 5468 5467 5465 5464 5462 5462 5461 5460 5458 5457 5455 5454 5453 5452 5451 5450 5449 5449 5448 5447 5447 5446 5446 5445 5445
5502 5501 5499 5497 5495 5493 5491 5489 5486 5483 5481 5478 5475 5472 5470 5467 5465 5463 5461 5460 5458 5457 5455 5454 5453 5452 5451 5449 5447 5446 5444 5443 5442 5441 5441 5441 5440 5439 5439 5438 5437 5437 5437
5495 5494 5492 5490 5488 5487 5485 5482 5480 5477 5475 5472 5469 5466 5464 5461 5459 5457 5455 5453 5451 5450 5448 5446 5445 5444 5443 5441 5440 5438 5436 5435 5433 5432 5432 5432 5432 5431 5430 5429 5429 5428 5428
5488 5486 5485 5483 5482 5480 5477 5475 5473 5471 5468 5465 5463 5460 5458 5455 5453 5450 5448 5446 5445 5443 5441 5440 5438 5437 5435 5434 5432 5430 5428 5427 5426 5424 5424 5424 5423 5423 5422 5421 5421 5420 5420